Weather History for Leeming, United Kingdom

Change the Weather History Date:

Thursday, February 14, 2013

  Actual Average (EGNV) Record (EGNV)
Temperature  
Mean Temperature 40 °F -  
Max Temperature 48 °F 45 °F 59 °F (1998)
Min Temperature 32 °F 34 °F 21 °F (2003)
Degree Days  
Heating Degree Days 25    
Moisture  
Dew Point 36 °F    
Average Humidity 91    
Maximum Humidity 100    
Minimum Humidity 68    
Precipitation  
Precipitation 0.00 in 0.06 in - ()
Sea Level Pressure  
Sea Level Pressure 29.76 in    
Wind  
Wind Speed 8 mph ()    
Max Wind Speed 14 mph    
Max Gust Speed -    
Visibility 5.7 miles    
Events Fog , Rain    
Averages and records for this station are not official NWS values.
T = Trace of Precipitation, MM = Missing Value Source: Averaged Metar Reports

Daily Weather History Graph

Daily Weather History Graph

Search for Another Location

Airport:

Trip Planner

Search our weather history database for the weather conditions in past years. The results will help you decide how hot, cold, wet, or windy it might be!

Date:

Astronomy

Feb. 14, 2013 Rise Set
Actual Time 7:28 AM GMT 5:12 PM GMT
Civil Twilight 6:51 AM GMT 5:49 PM GMT
Nautical Twilight 6:09 AM GMT 6:31 PM GMT
Astronomical Twilight 5:28 AM GMT 7:12 PM GMT
Moon 8:33 AM GMT (2/14) 10:56 PM GMT (2/14)
Length of Visible Light 10h 58m
Length of Day
9h 44m
Waxing Crescent, 19% of the Moon is Illuminated
Feb 14
Waxing Crescent
Feb 17
First Quarter
Feb 25
Full
Mar 4
Last Quarter
Mar 11
New

Hourly Weather History & Observations

Time (GMT) Temp. Windchill Dew Point Humidity Pressure Visibility Wind Dir Wind Speed Gust Speed Precip Events Conditions
12:50 AM 33.8 °F 24.3 °F 33.8 °F 100% 29.71 in - SSE 13.8 mph - N/A   Light Drizzle
1:50 AM 33.8 °F 25.3 °F 33.8 °F 100% 29.71 in 2.8 mi SSE 11.5 mph - N/A   Light Drizzle
2:50 AM 35 °F - 35 °F 97% 29.70 in 3 mi SSE 12.7 mph - - Rain Light Rain Showers
2:50 AM 35.6 °F 27.1 °F 33.8 °F 93% 29.68 in - SSE 12.7 mph - N/A Rain Light Rain Showers
3:50 AM 35.6 °F 28.6 °F 33.8 °F 93% 29.68 in - SE 9.2 mph - N/A   Light Drizzle
4:50 AM 35.6 °F 28.0 °F 35.6 °F 100% 29.68 in - SSE 10.4 mph - N/A Rain Rain
5:50 AM 35 °F - 35 °F 100% 29.69 in 2 mi SSE 8.1 mph - - Rain Light Rain
5:50 AM 35.6 °F 29.2 °F 35.6 °F 100% 29.68 in 2.2 mi SSE 8.1 mph - N/A   Mostly Cloudy
6:50 AM 35.6 °F 31.7 °F 35.6 °F 100% 29.68 in 1.2 mi South 4.6 mph - N/A   Overcast
7:50 AM 33.8 °F 29.6 °F 33.8 °F 100% 29.68 in 0.1 mi South 4.6 mph - N/A Fog Fog
8:50 AM 33 °F - 33 °F 98% 29.71 in 0 mi SSE 6.9 mph - - Fog Partial Fog
8:50 AM 32.0 °F 25.6 °F 32.0 °F 100% 29.68 in 0.1 mi SSE 6.9 mph - N/A Fog Fog
9:50 AM 33.8 °F 30.8 °F 33.8 °F 100% 29.71 in 0.3 mi SE 3.5 mph - N/A Fog Fog
10:50 AM 35.6 °F 31.7 °F 35.6 °F 100% 29.71 in 0.4 mi SE 4.6 mph - N/A Fog Fog
11:50 AM 40 °F - 39 °F 94% 29.75 in 16 mi SE 6.9 mph - - Fog Light Fog
11:50 AM 41.0 °F 36.4 °F 39.2 °F 93% 29.74 in 6.2 mi SE 6.9 mph - N/A   Mostly Cloudy
12:50 PM 46.4 °F 42.9 °F 42.8 °F 87% 29.74 in 6.2 mi WSW 6.9 mph - N/A   Scattered Clouds
1:50 PM 46.4 °F 40.7 °F 41.0 °F 81% 29.74 in 6.2 mi West 12.7 mph - N/A   Scattered Clouds
2:50 PM 48 °F - 41 °F 68% 29.77 in 16 mi West 10.4 mph - -   Mostly Cloudy
2:50 PM 48.2 °F - 41.0 °F 76% 29.77 in 6.2 mi West 10.4 mph - N/A   Mostly Cloudy
3:50 PM 46.4 °F 41.5 °F 41.0 °F 81% 29.77 in 6.2 mi West 10.4 mph - N/A   Mostly Cloudy
4:50 PM 46.4 °F 41.9 °F 39.2 °F 76% 29.77 in 6.2 mi West 9.2 mph - N/A   Mostly Cloudy
5:50 PM 41 °F - 38 °F 85% 29.81 in 14 mi West 9.2 mph - -   Scattered Clouds
5:50 PM 41.0 °F 35.2 °F 37.4 °F 87% 29.80 in 6.2 mi West 9.2 mph - N/A   Partly Cloudy
6:50 PM 39.2 °F 35.0 °F 35.6 °F 87% 29.83 in 6.2 mi SSW 5.8 mph - N/A   Unknown
7:50 PM 39.2 °F 35.0 °F 35.6 °F 87% 29.83 in 6.2 mi SSW 5.8 mph - N/A   Unknown
8:50 PM 38 °F - 34 °F 81% 29.86 in 11 mi West 5.8 mph - -  
8:50 PM 37.4 °F 32.8 °F 33.8 °F 87% 29.83 in 6.2 mi West 5.8 mph - N/A   Unknown
9:50 PM 37.4 °F 34.9 °F 35.6 °F 93% 29.86 in 6.2 mi West 3.5 mph - N/A   Unknown
10:50 PM 35.6 °F 29.9 °F 33.8 °F 93% 29.86 in 6.2 mi WSW 6.9 mph - N/A   Unknown
11:50 PM 35 °F - 33 °F 91% 29.89 in 10 mi SSW 6.9 mph - -   Partly Cloudy
11:50 PM 35.6 °F 29.9 °F 33.8 °F 93% 29.86 in 6.2 mi SSW 6.9 mph - N/A   Scattered Clouds